• In Netherlands
  • List of Countries
  • For 7 days
  • Water Temperature
  • Satellite Maps
  • Weather Map
  • Weather Widgets
  • user-avatar
    Login

    Hourly Weather Ordino

    Today, 24 September, Sunday

    Time Temperature Precipitation Wind Pressure Humidity
    00:00 +9°C° 0 mm 1 mps 636 mmHg 67%
    01:00 +9°C° 0 mm 1 mps 636 mmHg 64%
    02:00 +9°C° 0 mm 1 mps 636 mmHg 61%
    03:00 +9°C° 0 mm 1 mps 636 mmHg 58%
    04:00 +8°C° 0 mm 2 mps 636 mmHg 57%
    05:00 +8°C° 0 mm 2 mps 636 mmHg 55%
    06:00 +8°C° 0 mm 2 mps 636 mmHg 53%
    07:00 +12°C° 0 mm 1 mps 637 mmHg 47%
    08:00 +15°C° 0 mm 1 mps 638 mmHg 42%
    09:00 +19°C° 0 mm 1 mps 639 mmHg 36%
    10:00 +20°C° 0 mm 1 mps 639 mmHg 34%
    11:00 +21°C° 0 mm 1 mps 640 mmHg 32%
    12:00 +22°C° 0 mm 1 mps 640 mmHg 30%
    13:00 +22°C° 0 mm 1 mps 640 mmHg 32%
    14:00 +22°C° 0 mm 1 mps 639 mmHg 33%
    15:00 +22°C° 0 mm 1 mps 639 mmHg 34%
    16:00 +19°C° 0 mm 1 mps 638 mmHg 43%
    17:00 +16°C° 0 mm 1 mps 637 mmHg 52%
    18:00 +13°C° 0 mm 1 mps 636 mmHg 61%
    19:00 +13°C° 0 mm 1 mps 636 mmHg 62%
    20:00 +12°C° 0 mm 1 mps 636 mmHg 63%
    21:00 +12°C° 0 mm 1 mps 636 mmHg 65%
    22:00 +11°C° 0 mm 1 mps 636 mmHg 64%
    23:00 +11°C° 0 mm 1 mps 636 mmHg 64%

    Tomorrow, 25 September, Monday

    Time Temperature Precipitation Wind Pressure Humidity
    00:00 +11°C° 0 mm 1 mps 636 mmHg 64%
    01:00 +11°C° 0 mm 1 mps 636 mmHg 65%
    02:00 +11°C° 0 mm 1 mps 635 mmHg 65%
    03:00 +10°C° 0 mm 1 mps 635 mmHg 66%
    04:00 +10°C° 0 mm 1 mps 635 mmHg 67%
    05:00 +10°C° 0 mm 1 mps 635 mmHg 69%
    06:00 +10°C° 0 mm 1 mps 635 mmHg 70%
    07:00 +12°C° 0 mm 1 mps 636 mmHg 64%
    08:00 +14°C° 0 mm 1 mps 637 mmHg 58%
    09:00 +16°C° 0 mm 1 mps 638 mmHg 53%
    10:00 +17°C° 0.2 mm 2 mps 638 mmHg 52%
    11:00 +18°C° 0.2 mm 2 mps 638 mmHg 52%
    12:00 +18°C° 0.2 mm 2 mps 638 mmHg 51%
    13:00 +17°C° 0.4 mm 2 mps 638 mmHg 56%
    14:00 +16°C° 0.4 mm 2 mps 638 mmHg 61%
    15:00 +16°C° 0.4 mm 2 mps 637 mmHg 65%
    16:00 +14°C° 0.5 mm 2 mps 637 mmHg 72%
    17:00 +13°C° 0.5 mm 2 mps 637 mmHg 79%
    18:00 +12°C° 0.5 mm 2 mps 636 mmHg 86%
    19:00 +10°C° 0.3 mm 2 mps 637 mmHg 88%
    20:00 +10°C° 0.3 mm 2 mps 637 mmHg 90%
    21:00 +9°C° 0.3 mm 2 mps 637 mmHg 92%
    22:00 +10°C° 0.1 mm 1 mps 637 mmHg 93%
    23:00 +10°C° 0.1 mm 1 mps 637 mmHg 94%

    Day after tomorrow, 26 September, Tuesday

    Time Temperature Precipitation Wind Pressure Humidity
    00:00 +10°C° 0.1 mm 1 mps 637 mmHg 94%
    01:00 +10°C° 0.1 mm 1 mps 636 mmHg 95%
    02:00 +9°C° 0.1 mm 1 mps 636 mmHg 95%
    03:00 +9°C° 0.1 mm 1 mps 636 mmHg 96%
    04:00 +9°C° 0 mm 1 mps 636 mmHg 96%
    05:00 +9°C° 0 mm 1 mps 636 mmHg 96%
    06:00 +8°C° 0 mm 1 mps 636 mmHg 96%
    07:00 +10°C° 0 mm 1 mps 637 mmHg 90%
    08:00 +11°C° 0 mm 1 mps 637 mmHg 84%
    09:00 +12°C° 0 mm 1 mps 638 mmHg 78%
    10:00 +13°C° 0.1 mm 1 mps 638 mmHg 74%
    11:00 +14°C° 0.1 mm 1 mps 638 mmHg 70%
    12:00 +14°C° 0.1 mm 1 mps 638 mmHg 65%
    13:00 +14°C° 0.1 mm 1 mps 638 mmHg 65%
    14:00 +14°C° 0.1 mm 1 mps 638 mmHg 65%
    15:00 +14°C° 0.1 mm 1 mps 638 mmHg 65%
    16:00 +13°C° 0.1 mm 1 mps 637 mmHg 70%
    17:00 +12°C° 0.1 mm 1 mps 637 mmHg 75%
    18:00 +9°C° 0.1 mm 0 mps 636 mmHg 80%
    19:00 +10°C° 0 mm 1 mps 636 mmHg 83%
    20:00 +9°C° 0 mm 1 mps 637 mmHg 85%
    21:00 +9°C° 0 mm 1 mps 637 mmHg 87%
    22:00 +8°C° 0 mm 1 mps 636 mmHg 88%
    23:00 +8°C° 0 mm 1 mps 636 mmHg 89%

    27 September, Wednesday

    Time Temperature Precipitation Wind Pressure Humidity
    00:00 +8°C° 0 mm 1 mps 636 mmHg 90%
    01:00 +8°C° 0 mm 1 mps 636 mmHg 89%
    02:00 +8°C° 0 mm 1 mps 636 mmHg 89%
    03:00 +7°C° 0 mm 1 mps 636 mmHg 89%
    04:00 +7°C° 0 mm 1 mps 636 mmHg 88%
    05:00 +7°C° 0 mm 1 mps 636 mmHg 87%
    06:00 +7°C° 0 mm 1 mps 636 mmHg 87%
    07:00 +10°C° 0 mm 1 mps 637 mmHg 77%
    08:00 +12°C° 0 mm 1 mps 638 mmHg 67%
    09:00 +15°C° 0 mm 1 mps 639 mmHg 57%
    10:00 +16°C° 0 mm 1 mps 640 mmHg 52%
    11:00 +19°C° 0 mm 1 mps 640 mmHg 46%
    12:00 +20°C° 0 mm 1 mps 641 mmHg 41%
    13:00 +20°C° 0 mm 1 mps 641 mmHg 42%
    14:00 +19°C° 0 mm 2 mps 640 mmHg 43%
    15:00 +18°C° 0 mm 2 mps 640 mmHg 44%
    16:00 +16°C° 0 mm 1 mps 640 mmHg 54%
    17:00 +14°C° 0 mm 1 mps 639 mmHg 63%
    18:00 +11°C° 0 mm 1 mps 638 mmHg 73%
    19:00 +11°C° 0 mm 1 mps 639 mmHg 75%
    20:00 +10°C° 0 mm 1 mps 639 mmHg 77%
    21:00 +10°C° 0 mm 1 mps 639 mmHg 79%
    22:00 +10°C° 0 mm 1 mps 639 mmHg 78%
    23:00 +9°C° 0 mm 1 mps 639 mmHg 76%

    28 September, Thursday

    Time Temperature Precipitation Wind Pressure Humidity
    00:00 +9°C° 0 mm 1 mps 639 mmHg 74%
    01:00 +9°C° 0 mm 1 mps 639 mmHg 70%
    02:00 +9°C° 0 mm 1 mps 639 mmHg 66%
    03:00 +9°C° 0 mm 1 mps 639 mmHg 62%
    04:00 +9°C° 0 mm 1 mps 639 mmHg 59%
    05:00 +9°C° 0 mm 1 mps 639 mmHg 55%
    06:00 +9°C° 0 mm 1 mps 639 mmHg 52%
    07:00 +12°C° 0 mm 1 mps 640 mmHg 48%
    08:00 +13°C° 0 mm 0 mps 641 mmHg 44%
    09:00 +16°C° 0 mm 0 mps 643 mmHg 40%
    10:00 +19°C° 0 mm 1 mps 643 mmHg 39%
    11:00 +20°C° 0 mm 1 mps 643 mmHg 37%
    12:00 +21°C° 0 mm 1 mps 643 mmHg 36%
    13:00 +21°C° 0 mm 1 mps 643 mmHg 38%
    14:00 +21°C° 0 mm 1 mps 642 mmHg 39%
    15:00 +21°C° 0 mm 1 mps 642 mmHg 41%
    16:00 +19°C° 0 mm 1 mps 641 mmHg 51%
    17:00 +15°C° 0 mm 1 mps 641 mmHg 60%
    18:00 +13°C° 0 mm 1 mps 640 mmHg 70%
    19:00 +12°C° 0 mm 1 mps 640 mmHg 73%
    20:00 +12°C° 0 mm 1 mps 640 mmHg 76%
    21:00 +11°C° 0 mm 1 mps 640 mmHg 80%
    22:00 +11°C° 0 mm 1 mps 640 mmHg 80%
    23:00 +11°C° 0 mm 1 mps 639 mmHg 80%

    29 September, Friday

    Time Temperature Precipitation Wind Pressure Humidity
    00:00 +11°C° 0 mm 1 mps 639 mmHg 81%
    01:00 +11°C° 0 mm 1 mps 639 mmHg 81%
    02:00 +10°C° 0 mm 1 mps 639 mmHg 81%
    03:00 +10°C° 0 mm 1 mps 638 mmHg 80%
    04:00 +10°C° 0 mm 1 mps 638 mmHg 80%
    05:00 +10°C° 0 mm 1 mps 638 mmHg 81%
    06:00 +10°C° 0 mm 1 mps 638 mmHg 81%
    07:00 +13°C° 0 mm 1 mps 639 mmHg 72%
    08:00 +15°C° 0 mm 1 mps 640 mmHg 64%
    09:00 +19°C° 0 mm 1 mps 641 mmHg 55%
    10:00 +20°C° 0 mm 1 mps 641 mmHg 52%
    11:00 +20°C° 0 mm 2 mps 641 mmHg 48%
    12:00 +21°C° 0 mm 2 mps 642 mmHg 45%
    13:00 +21°C° 0.5 mm 2 mps 641 mmHg 48%
    14:00 +20°C° 0.5 mm 2 mps 641 mmHg 51%
    15:00 +20°C° 0.5 mm 2 mps 640 mmHg 53%
    16:00 +19°C° 0.3 mm 1 mps 639 mmHg 61%
    17:00 +16°C° 0.3 mm 1 mps 639 mmHg 69%
    18:00 +14°C° 0.3 mm 1 mps 638 mmHg 76%
    19:00 +13°C° 0.2 mm 1 mps 638 mmHg 78%
    20:00 +13°C° 0.2 mm 1 mps 638 mmHg 80%
    21:00 +12°C° 0.2 mm 1 mps 638 mmHg 81%
    22:00 +12°C° 0.1 mm 1 mps 638 mmHg 82%
    23:00 +12°C° 0.1 mm 1 mps 638 mmHg 82%
    Show more